• în Republica Moldova
  • Lista ţărilor
  • Pe 7 zile
  • Temperatura apei
  • Hartă satelitară
  • Meteo pe hartă
  • Widget-uri
  • user-avatar
    Intrare

    Meteo pe oră la Korçe

    Astăzi, 24 Septembrie, Luni

    Timp Temperatura Precipitaţii Vânt Presiune Umiditate
    00:00 +16°C° 0 mm 1 m/s 669 mmHg 68%
    01:00 +16°C° 0 mm 1 m/s 669 mmHg 70%
    02:00 +15°C° 0 mm 1 m/s 669 mmHg 72%
    03:00 +15°C° 0 mm 1 m/s 669 mmHg 74%
    04:00 +15°C° 0 mm 1 m/s 668 mmHg 77%
    05:00 +16°C° 0 mm 1 m/s 668 mmHg 73%
    06:00 +16°C° 0 mm 1 m/s 669 mmHg 70%
    07:00 +18°C° 0 mm 1 m/s 669 mmHg 67%
    08:00 +19°C° 0 mm 2 m/s 669 mmHg 57%
    09:00 +21°C° 0 mm 2 m/s 669 mmHg 48%
    10:00 +24°C° 0 mm 2 m/s 670 mmHg 38%
    11:00 +25°C° 0 mm 2 m/s 670 mmHg 37%
    12:00 +26°C° 0 mm 3 m/s 669 mmHg 35%
    13:00 +26°C° 0 mm 3 m/s 669 mmHg 34%
    14:00 +26°C° 0 mm 3 m/s 669 mmHg 37%
    15:00 +25°C° 0 mm 3 m/s 669 mmHg 41%
    16:00 +24°C° 0 mm 3 m/s 668 mmHg 45%
    17:00 +21°C° 0 mm 2 m/s 668 mmHg 55%
    18:00 +19°C° 0 mm 2 m/s 668 mmHg 64%
    19:00 +18°C° 0 mm 1 m/s 668 mmHg 74%
    20:00 +16°C° 0 mm 2 m/s 669 mmHg 77%
    21:00 +16°C° 0 mm 2 m/s 669 mmHg 79%
    22:00 +15°C° 0 mm 2 m/s 669 mmHg 81%
    23:00 +14°C° 0 mm 2 m/s 669 mmHg 79%

    Mâine, 25 Septembrie, Marţi

    Timp Temperatura Precipitaţii Vânt Presiune Umiditate
    00:00 +13°C° 0 mm 2 m/s 669 mmHg 76%
    01:00 +13°C° 0 mm 2 m/s 669 mmHg 74%
    02:00 +12°C° 0 mm 2 m/s 669 mmHg 71%
    03:00 +10°C° 0 mm 3 m/s 669 mmHg 69%
    04:00 +10°C° 0 mm 3 m/s 669 mmHg 66%
    05:00 +10°C° 0 mm 3 m/s 670 mmHg 63%
    06:00 +10°C° 0 mm 3 m/s 670 mmHg 60%
    07:00 +10°C° 0 mm 3 m/s 670 mmHg 56%
    08:00 +12°C° 0 mm 3 m/s 671 mmHg 50%
    09:00 +14°C° 0 mm 3 m/s 672 mmHg 44%
    10:00 +17°C° 0 mm 3 m/s 672 mmHg 39%
    11:00 +18°C° 0 mm 3 m/s 672 mmHg 37%
    12:00 +19°C° 0 mm 3 m/s 672 mmHg 35%
    13:00 +20°C° 0 mm 3 m/s 672 mmHg 33%
    14:00 +19°C° 0 mm 3 m/s 672 mmHg 34%
    15:00 +19°C° 0 mm 3 m/s 672 mmHg 35%
    16:00 +18°C° 0 mm 3 m/s 672 mmHg 35%
    17:00 +16°C° 0 mm 3 m/s 672 mmHg 37%
    18:00 +14°C° 0 mm 3 m/s 672 mmHg 38%
    19:00 +12°C° 0 mm 3 m/s 672 mmHg 39%
    20:00 +11°C° 0 mm 3 m/s 672 mmHg 39%
    21:00 +10°C° 0 mm 3 m/s 672 mmHg 38%
    22:00 +9°C° 0 mm 3 m/s 672 mmHg 38%
    23:00 +8°C° 0 mm 3 m/s 672 mmHg 39%

    Poimâine, 26 Septembrie, Miercuri

    Timp Temperatura Precipitaţii Vânt Presiune Umiditate
    00:00 +8°C° 0 mm 3 m/s 672 mmHg 41%
    01:00 +7°C° 0 mm 3 m/s 672 mmHg 42%
    02:00 +5°C° 0 mm 3 m/s 672 mmHg 44%
    03:00 +5°C° 0 mm 3 m/s 672 mmHg 46%
    04:00 +4°C° 0 mm 3 m/s 672 mmHg 48%
    05:00 +5°C° 0 mm 3 m/s 672 mmHg 47%
    06:00 +5°C° 0 mm 3 m/s 672 mmHg 45%
    07:00 +7°C° 0 mm 3 m/s 673 mmHg 44%
    08:00 +7°C° 0 mm 4 m/s 673 mmHg 41%
    09:00 +10°C° 0 mm 4 m/s 674 mmHg 37%
    10:00 +12°C° 0 mm 4 m/s 675 mmHg 33%
    11:00 +12°C° 0 mm 4 m/s 674 mmHg 32%
    12:00 +13°C° 0 mm 5 m/s 674 mmHg 31%
    13:00 +14°C° 0 mm 5 m/s 674 mmHg 30%
    14:00 +13°C° 0 mm 5 m/s 674 mmHg 30%
    15:00 +13°C° 0 mm 5 m/s 674 mmHg 30%
    16:00 +12°C° 0 mm 5 m/s 674 mmHg 30%
    17:00 +10°C° 0 mm 4 m/s 674 mmHg 33%
    18:00 +8°C° 0 mm 4 m/s 674 mmHg 36%
    19:00 +7°C° 0 mm 3 m/s 674 mmHg 40%
    20:00 +5°C° 0 mm 3 m/s 674 mmHg 41%
    21:00 +5°C° 0 mm 3 m/s 674 mmHg 43%
    22:00 +4°C° 0 mm 3 m/s 674 mmHg 45%
    23:00 +4°C° 0 mm 3 m/s 674 mmHg 47%

    27 Septembrie, Joi

    Timp Temperatura Precipitaţii Vânt Presiune Umiditate
    00:00 +3°C° 0 mm 3 m/s 674 mmHg 48%
    01:00 +4°C° 0 mm 2 m/s 674 mmHg 50%
    02:00 +3°C° 0 mm 2 m/s 673 mmHg 52%
    03:00 +3°C° 0 mm 2 m/s 673 mmHg 54%
    04:00 +2°C° 0 mm 2 m/s 672 mmHg 56%
    05:00 +3°C° 0 mm 2 m/s 673 mmHg 53%
    06:00 +3°C° 0 mm 3 m/s 673 mmHg 51%
    07:00 +4°C° 0 mm 3 m/s 673 mmHg 48%
    08:00 +7°C° 0 mm 3 m/s 673 mmHg 40%
    09:00 +9°C° 0 mm 3 m/s 673 mmHg 33%
    10:00 +11°C° 0 mm 4 m/s 674 mmHg 25%
    11:00 +12°C° 0 mm 4 m/s 673 mmHg 22%
    12:00 +14°C° 0 mm 4 m/s 673 mmHg 20%
    13:00 +15°C° 0 mm 4 m/s 672 mmHg 18%
    14:00 +15°C° 0 mm 4 m/s 672 mmHg 18%
    15:00 +15°C° 0 mm 4 m/s 672 mmHg 19%
    16:00 +14°C° 0 mm 4 m/s 671 mmHg 20%
    17:00 +13°C° 0 mm 3 m/s 671 mmHg 23%
    18:00 +11°C° 0 mm 3 m/s 670 mmHg 26%
    19:00 +9°C° 0 mm 2 m/s 670 mmHg 29%
    20:00 +8°C° 0 mm 2 m/s 670 mmHg 31%
    21:00 +8°C° 0 mm 2 m/s 670 mmHg 32%
    22:00 +7°C° 0 mm 2 m/s 669 mmHg 34%
    23:00 +7°C° 0 mm 2 m/s 669 mmHg 36%

    28 Septembrie, Vineri

    Timp Temperatura Precipitaţii Vânt Presiune Umiditate
    00:00 +7°C° 0 mm 2 m/s 669 mmHg 38%
    01:00 +6°C° 0 mm 2 m/s 668 mmHg 39%
    02:00 +6°C° 0 mm 2 m/s 668 mmHg 40%
    03:00 +6°C° 0 mm 2 m/s 668 mmHg 40%
    04:00 +6°C° 0 mm 2 m/s 667 mmHg 41%
    05:00 +7°C° 0.2 mm 2 m/s 667 mmHg 42%
    06:00 +7°C° 0.2 mm 2 m/s 668 mmHg 44%
    07:00 +8°C° 0.2 mm 2 m/s 668 mmHg 46%
    08:00 +10°C° 0 mm 2 m/s 668 mmHg 41%
    09:00 +12°C° 0 mm 3 m/s 669 mmHg 37%
    10:00 +14°C° 0 mm 3 m/s 669 mmHg 32%
    11:00 +16°C° 0.1 mm 3 m/s 669 mmHg 34%
    12:00 +17°C° 0.1 mm 3 m/s 669 mmHg 37%
    13:00 +17°C° 0.1 mm 3 m/s 668 mmHg 39%
    14:00 +17°C° 0.2 mm 3 m/s 668 mmHg 45%
    15:00 +16°C° 0.2 mm 3 m/s 668 mmHg 50%
    16:00 +14°C° 0.2 mm 3 m/s 667 mmHg 55%
    17:00 +13°C° 0.3 mm 3 m/s 667 mmHg 60%
    18:00 +13°C° 0.3 mm 2 m/s 667 mmHg 64%
    19:00 +12°C° 0.3 mm 2 m/s 667 mmHg 69%
    20:00 +10°C° 0.1 mm 2 m/s 667 mmHg 70%
    21:00 +10°C° 0.1 mm 2 m/s 667 mmHg 71%
    22:00 +10°C° 0.1 mm 2 m/s 667 mmHg 72%
    23:00 +9°C° 0.1 mm 2 m/s 667 mmHg 72%

    29 Septembrie, Sâmbătă

    Timp Temperatura Precipitaţii Vânt Presiune Umiditate
    00:00 +9°C° 0.1 mm 2 m/s 666 mmHg 73%
    01:00 +9°C° 0.1 mm 2 m/s 666 mmHg 73%
    02:00 +9°C° 0 mm 2 m/s 666 mmHg 74%
    03:00 +9°C° 0 mm 2 m/s 666 mmHg 75%
    04:00 +9°C° 0 mm 2 m/s 666 mmHg 76%
    05:00 +10°C° 0 mm 2 m/s 666 mmHg 75%
    06:00 +10°C° 0 mm 2 m/s 667 mmHg 74%
    07:00 +12°C° 0 mm 2 m/s 667 mmHg 73%
    08:00 +14°C° 0 mm 2 m/s 667 mmHg 67%
    09:00 +16°C° 0 mm 2 m/s 668 mmHg 60%
    10:00 +17°C° 0 mm 2 m/s 668 mmHg 53%
    11:00 +18°C° 0 mm 2 m/s 668 mmHg 50%
    12:00 +19°C° 0 mm 2 m/s 668 mmHg 47%
    13:00 +20°C° 0 mm 2 m/s 668 mmHg 45%
    14:00 +19°C° 0.1 mm 2 m/s 668 mmHg 46%
    15:00 +19°C° 0.1 mm 2 m/s 668 mmHg 47%
    16:00 +18°C° 0.1 mm 2 m/s 668 mmHg 48%
    17:00 +17°C° 0 mm 2 m/s 668 mmHg 53%
    18:00 +15°C° 0 mm 1 m/s 668 mmHg 58%
    19:00 +13°C° 0 mm 1 m/s 668 mmHg 63%
    20:00 +13°C° 0 mm 1 m/s 668 mmHg 64%
    21:00 +12°C° 0 mm 1 m/s 668 mmHg 65%
    22:00 +12°C° 0 mm 1 m/s 668 mmHg 67%
    23:00 +12°C° 0 mm 2 m/s 668 mmHg 67%
    Arată mai mult

    3.3.7123123